This is the latest recevied weather packets stored in our database for station/object N7CEE-2. If no packets are shown the sender has not sent any weather packets the latest 10 day(s).
| Time | Temp. | Humidity | Pressure | Rain* | Wind** | Luminosity | Snow |
|---|---|---|---|---|---|---|---|
| 1777554981 | 16.11° C | 38% | 1012.9 hPa | 0 mm | - | 31 W/m² | - |
| 1777554679 | 15.56° C | 39% | 1012.7 hPa | 0 mm | - | 26 W/m² | - |
| 1777554375 | 15.56° C | 40% | 1012.6 hPa | 0 mm | - | 22 W/m² | - |
| 1777554072 | 15.56° C | 40% | 1012.7 hPa | 0 mm | - | 18 W/m² | - |
| 1777553769 | 15° C | 40% | 1012.5 hPa | 0 mm | - | 14 W/m² | - |
| 1777553465 | 14.44° C | 43% | 1012.2 hPa | 0 mm | - | 10 W/m² | - |
| 1777553161 | 14.44° C | 40% | 1012.4 hPa | 0 mm | - | 7 W/m² | - |
| 1777552856 | 15° C | 40% | 1012.3 hPa | 0 mm | - | 4 W/m² | - |
| 1777552552 | 15° C | 40% | 1012.4 hPa | 0 mm | - | 2 W/m² | - |
| 1777552248 | 15° C | 40% | 1012.5 hPa | 0 mm | - | 1 W/m² | - |
| 1777551945 | 15° C | 40% | 1012.3 hPa | 0 mm | - | 0 W/m² | - |
| 1777551643 | 15° C | 39% | 1012.6 hPa | 0 mm | - | 0 W/m² | - |
| 1777551340 | 15° C | 39% | 1012.5 hPa | 0 mm | - | 0 W/m² | - |
| 1777551036 | 15° C | 39% | 1012.3 hPa | 0 mm | - | 0 W/m² | - |
| 1777550733 | 15.56° C | 39% | 1012.5 hPa | 0 mm | - | 0 W/m² | - |
| 1777550430 | 15.56° C | 38% | 1012.4 hPa | 0 mm | - | 0 W/m² | - |
| 1777550126 | 15.56° C | 36% | 1012.3 hPa | 0 mm | - | 0 W/m² | - |
| 1777549822 | 16.11° C | 36% | 1012.2 hPa | 0 mm | - | 0 W/m² | - |
| 1777549519 | 16.11° C | 35% | 1012.5 hPa | 0 mm | - | 0 W/m² | - |
| 1777549215 | 15.56° C | 37% | 1012.5 hPa | 0 mm | - | 0 W/m² | - |
| 1777548912 | 16.11° C | 38% | 1012.3 hPa | 0 mm | - | 0 W/m² | - |
| 1777548609 | 16.11° C | 38% | 1012.6 hPa | 0 mm | - | 0 W/m² | - |
| 1777548305 | 16.11° C | 37% | 1012.4 hPa | 0 mm | - | 0 W/m² | - |
| 1777548003 | 16.11° C | 40% | 1012.5 hPa | 0 mm | - | 0 W/m² | - |
| 1777547697 | 16.11° C | 39% | 1012.5 hPa | 0 mm | - | 0 W/m² | - |
* Rain latest hour (hover to see other rain measurements)
** Current wind speed in m/s (hover to see current wind gust speed)